Location: Astronomy Club of Akron Observatory
(40.9700°N, 81.5606°W)
Time: 13:31:50
(UTC-04:00)

ATLAS 2AS CENTAUR R/B - Visible Passes

Search period start: 02 September 2014 00:00
Search period end: 12 September 2014 00:00
Orbit: 919 x 1293 km, 63.7° (Epoch: 27 August)

Date Brightness Start Highest point End Pass type
(mag) Time Alt. Az. Time Alt. Az. Time Alt. Az.
02 Sep 4.1 21:12:20 10° NW 21:19:47 43° WSW 21:26:58 10° S visible
03 Sep 3.5 20:27:17 10° NW 20:35:16 65° WSW 20:42:56 10° SSE visible
03 Sep 5.4 22:22:22 10° W 22:24:46 12° W 22:27:09 10° WSW visible
04 Sep 5.2 21:35:08 10° WNW 21:40:38 21° WSW 21:45:59 10° SSW visible
05 Sep 4.7 20:49:25 10° NW 20:56:21 33° WSW 21:03:02 10° S visible
06 Sep 4.0 20:04:12 10° NW 20:11:55 51° WSW 20:19:20 10° S visible
07 Sep 5.5 21:13:00 10° WNW 21:17:02 15° WSW 21:21:01 10° SW visible
08 Sep 5.2 20:26:40 10° WNW 20:32:51 25° WSW 20:38:50 10° SSW visible
10 Sep 6.0 20:53:13 10° W 20:53:24 10° W 20:53:35 10° W visible
11 Sep 5.5 20:04:12 10° WNW 20:09:17 19° WSW 20:14:16 10° SW visible
